Regional Weather Roundup
Issued by NWS State College, PA

Home | Current Version | Previous Version | Graphics & Text | Print | Product List | Glossary On
Versions: 1 2 3 4 5 6 7 8 9 10 11 12 13 14 15 16 17 18 19 20 21 22 23 24 25 26 27 28 29 30 31 32 33 34 35 36 37 38 39 40 41 42 43 44 45 46 47 48 49 50
545
ASUS41 KCTP 020910
RWRCTP

REGIONAL WEATHER ROUNDUP
NATIONAL WEATHER SERVICE STATE COLLEGE PA
400 AM EST FRI DEC 02 2016

Note: "fair" indicates few or no clouds below 12,000 feet with no
significant weather and/or obstructions to visibility.

* = STATION THAT DOES NOT REPORT PRECIPITATION /E.G. RAIN...SNOW...ETC/
    THUNDER OR FOG.

PAZ002>004-007>009-013>016-020>023-029>032-021000-
WESTERN PENNSYLVANIA

CITY           SKY/WX    TMP DP  RH WIND       PRES   REMARKS
ERIE           LGT RAIN  36  33  89 SW9       29.90S
MEADVILLE      CLOUDY    36  30  79 SW15G21   29.90S
FRANKLIN*        N/A     34  27  75 SW12      29.93S
NEW CASTLE     CLOUDY    38  31  76 W9        29.97S
BEAVER COUNTY  NOT AVBL
BUTLER*        CLOUDY    36  28  75 W10       30.00R
PITTSBURGH INT CLOUDY    39  29  67 W8        29.97S
PITTSBURGH     CLOUDY    37  27  67 W12       29.98R
INDIANA*       CLOUDY    37  30  75 W12G20    29.98R
LATROBE        CLOUDY    37  28  70 SW9       29.99S
WASHINGTON CO* CLOUDY    36  25  64 SW9G16    30.01R
$$

PAZ004>006-010>012-017>019-024>028-033>037-041-042-045-046-049>053-021000-
CENTRAL PENNSYLVANIA

CITY           SKY/WX    TMP DP  RH WIND       PRES   REMARKS
BRADFORD       FLURRIES  34  31  88 W9G17     29.83S
DUBOIS         CLOUDY    34  28  79 W18G26    29.88F
CLEARFIELD     CLOUDY    36  30  79 W12       29.90S
JOHNSTOWN      CLOUDY    33  26  75 W15G23    29.91S
ALTOONA        CLOUDY    38  28  67 W12       29.94S
STATE COLLEGE  CLOUDY    37  29  74 W13G20    29.91S
WILLIAMSPORT   CLOUDY    41  30  65 W10       29.89S
SELINSGROVE    PTCLDY    38  31  76 SW5       29.93R
FT INDIANTOWN  PTCLDY    32  29  90 CALM      29.93S
CAPITAL CITY   MOCLDY    41  27  57 W13       29.94S
HARRISBURG     PTCLDY    42  29  59 W14       29.94S
YORK           MOCLDY    38  28  67 W5        29.95S
$$

PAZ038>040-043-044-047-048-054-055-060>062-067>071-021000-
EASTERN PENNSYLVANIA

CITY           SKY/WX    TMP DP  RH WIND       PRES   REMARKS
SCRANTON       CLOUDY    38  29  70 SW8       29.85F
MOUNT POCONO   CLOUDY    33  26  75 W14       29.81S
ALLENTOWN      PTCLDY    35  27  72 SW8       29.89F
QUAKERTOWN*    SUNNY     37  27  65 W3        29.92R
READING        PTCLDY    37  26  64 SW5       29.92S
LANCASTER      PTCLDY    37  29  72 W9        29.94S
COATESVILLE    SUNNY     37  28  70 W5        29.95R
POTTSTOWN      PTCLDY    38  27  64 W7        29.94R
BLUE BELL      CLEAR     37  28  70 W6        29.92R
DOYLESTOWN     CLEAR     39  28  64 W9        29.91R
WILLOW GROVE   NOT AVBL
NORTH PHILA    CLEAR     39  28  64 W8        29.94S
PHILADELPHIA   CLEAR     41  28  60 W9        29.95S
$$




USA.gov is the U.S. government's official web portal to all federal, state and local government web resources and services.